Regional Weather Roundup
Issued by NWS

Home | Current Version | Previous Version | Text Only | Print | Product List | Glossary On
Versions: 1 2 3 4 5 6 7 8 9 10 11 12 13 14 15 16 17 18 19 20 21 22 23 24 25 26 27
000
ASUS45 KSLC 301510
RWRUT

UTAH REGIONAL WEATHER ROUNDUP
NATIONAL WEATHER SERVICE SALT LAKE CITY UT
900 AM MDT SAT APR 30 2016

UTZ001>011-023>025-301600-

NORTHERN UTAH

CITY           SKY/WX    TMP DP  RH WIND       PRES   REMARKS
BRIGHAM CITY   CLOUDY    51  31  48 N10       29.95R
HILL AFB       MOSUNNY   45  33  64 E15       29.95R
LOGAN          MOSUNNY   45  40  82 W3        29.97R
OGDEN          MOSUNNY   50  31  48 VRB6      29.93R
PROVO AIRPORT  MOSUNNY   48  36  61 CALM      29.93R
SALT LAKE CITY MOSUNNY   50  39  66 W5        29.93R
VERNAL         CLOUDY    43  30  60 NE10      29.95R
WENDOVER       CLOUDY    46  36  66 W10       29.96R
HEBER CITY     MOSUNNY   41  30  65 N8        29.94R

$$

UTZ012>022-026-027-301600-

SOUTHERN/CENTRAL UTAH

CITY           SKY/WX    TMP DP  RH WIND       PRES   REMARKS
BLANDING       SUNNY     43  37  77 S3        29.96R
BRYCE CANYON   CLOUDY    36  33  89 NE8       29.90R WCI  30
CEDAR CITY     CLOUDY    43  38  82 N8        29.84R
DELTA          MOSUNNY   45  41  87 N7        29.91S
HANKSVILLE     PTSUNNY   45  39  81 NW5       29.91R
MILFORD        CLOUDY    45  42  89 N20       29.88R
MOAB/CYNLANDS  CLOUDY    49  36  61 E9        29.88R
PRICE          CLOUDY    44  31  60 NE14      29.91R
ST GEORGE      CLOUDY    50  45  81 NW3       29.83S

$$

REGIONAL REPORTS     COLORADO/ARIZONA

CITY           SKY/WX    TMP DP  RH WIND       PRES   REMARKS
CRAIG, CO      CLOUDY    37  32  82 E5        29.92R WCI  33
GRAND JUNCTION MOSUNNY   46  38  73 SW3       29.90R
RIFLE          CLOUDY    43  31  62 W7        29.90R
MONTROSE       CLOUDY    43  34  70 N9        29.92R
CORTEZ         PTSUNNY   44  36  73 CALM      29.90R
PAGE, AZ       CLOUDY    50  43  77 W5        29.85R
GRAND CANYON   CLOUDY    40  36  86 SE7       29.88R
KINGMAN        CLOUDY    59  38  45 S8        29.73R
FLAGSTAFF      CLOUDY    39  37  92 CALM      29.89R

$$

REGIONAL REPORTS    NEVADA/IDAHO/WYOMING

CITY           SKY/WX    TMP DP  RH WIND       PRES   REMARKS
LAS VEGAS, NV  RAIN      49  49 100 NW13G22   29.73S FOG
ELY            CLOUDY    39  36  89 N20       29.93R WCI  29
ELKO           CLOUDY    43  34  70 NE7       30.01R
POCATELLO, ID  CLOUDY    43  41  93 W5        30.02R
BURLEY         CLOUDY    41  37  86 W10       30.03R
EVANSTON, WY   CLOUDY    33  26  75 E16G22    30.00R WCI  23
ROCK SPRINGS   CLOUDY    33  28  81 NE14      30.00R WCI  23
KEMMERER         N/A     32  30  93 E14       30.02R WCI  22

$$




USA.gov is the U.S. government's official web portal to all federal, state and local government web resources and services.